* Astronomy

Members Login
Post Info TOPIC: SL-12 Rocket body auxiliary motor Re-entry


L

Posts: 131433
Date:
RE: SL-12 Rocket body auxiliary motor Re-entry
Permalink  
 


Update:
The SL-12 Rocket body auxiliary motor re-entered the Earths atmosphere on the 14th December, 2012 @ 18:42GMT ± 2 hours.

Inclination: 47.2° 
Revolution Number:    735
Predicted  Location:    40.5°N, 59.1°W



__________________


L

Posts: 131433
Date:
Permalink  
 

Update:
The SL-12 Rocket body auxiliary motor is predicted to re-enter the Earths atmosphere on the 14th December, 2012 @ 17:21 GMT ± 4 hours.

SL-12 RB (AUX MOTOR)
1 38106U 12012F   12348.85201331  .76391478  00000-0 649521+0 0  2191
2 38106 047.8378 180.6657 1094166 091.1399 289.5719 13.13102997  7227

Period:       128.68 minutes
Inclination: 47.83° 
Apogee:     4021 km
Perigee:     109 km
Revolution Number:    734
Predicted  Location:    10.1°N, 4°E



__________________


L

Posts: 131433
Date:
Permalink  
 

Update:
The SL-12 Rocket body auxiliary motor is predicted to re-enter the Earths atmosphere on the 15th December, 2012 @ 02:07 GMT ± 24 hours.

SL-12 RB (AUX MOTOR)
1 38106U 12012F   12348.07940440  .64636751  19200-4  22194-2 0  2144
2 38106 047.1901 183.4808 1969297 095.8948 035.7540 11.98213511  7126

Period:       128.68 minutes
Inclination: 47.19° 
Apogee:     4021 km
Perigee:     109 km
Revolution Number:    737
Predicted  Location:    30.4°N, 152.5°W



__________________


L

Posts: 131433
Date:
Permalink  
 

A SL-12 Rocket body auxiliary motor that was launched on the 30th March, 2012, from the Baikonur cosmodrome, for the Kosmos-2479 satellite mission is predicted to re-enter the Earths atmosphere on the 14th December, 2012 @ 14:35 GMT ± 24 hours.

SL-12 RB (AUX MOTOR)
1 38106U 12012F   12346.93407519  .44506544  16380-4  19444-2 0  2089
2 38106 047.1823 186.7646 2504063 092.3931 043.3183 10.80428645  6994

Period:       147.63 minutes
Inclination: 47.18° 
Apogee:     5641 km
Perigee:     108 km
Revolution Number:    731
Predicted  Location:    43°N, 4°W

 



__________________
Page 1 of 1  sorted by
 
Quick Reply

Please log in to post quick replies.



Create your own FREE Forum
Report Abuse
Powered by ActiveBoard